, SD

(GMT )
Rapid City

Weather History for KRAP - October, 2011

Change the Weather History Date:

Wednesday, October 26, 2011

  Actual Average Record
Temperature  
Mean Temperature 33 °F 44 °F  
Max Temperature 47 °F 57 °F 81 °F (1990)
Min Temperature 19 °F 31 °F 2 °F (1997)
Degree Days  
Heating Degree Days 32 21  
Month to date heating degree days 343 426  
Since 1 July heating degree days 496 650  
Cooling Degree Days 0 0  
Month to date cooling degree days 24 0  
Year to date cooling degree days 699 633  
Moisture  
Dew Point 25 °F    
Average Humidity 67    
Maximum Humidity 100    
Minimum Humidity 34    
Precipitation  
Precipitation T in 0.03 in 0.40 in (1954)
Month to date precipitation 1.38 1.25  
Year to date precipitation 18.42 15.17  
Snow  
Snow 0.00 in 0.10 in 3.50 in (1954)
Month to date snowfall 0.0 1.0  
Since 1 July snowfall 0.0 1.2  
Since 1 September snowfall 0.0 1.2  
Snow Depth 0.00 in    
Sea Level Pressure  
Sea Level Pressure 30.26 in    
Wind  
Wind Speed 8 mph (NW)    
Max Wind Speed 20 mph    
Max Gust Speed 23 mph    
Visibility 10 miles    
Events      
T = Trace of Precipitation, MM = Missing Value Source: NWS Daily Summary

Daily Weather History Graph

Daily Weather History Graph

Search for Another Location

Airport or City:

Trip Planner

Search our weather history database for the weather conditions in past years. The results will help you decide how hot, cold, wet, or windy it might be!

Date:

Astronomy

Oct. 26, 2011 Rise Set
Actual Time 7:20 AM MDT 5:51 PM MDT
Civil Twilight 6:50 AM MDT 6:20 PM MDT
Nautical Twilight 6:17 AM MDT 6:54 PM MDT
Astronomical Twilight 5:43 AM MDT 7:27 PM MDT
Moon 7:13 AM MDT (10/26) 5:32 PM MDT (10/26)
Length of Visible Light 11h 29m
Length of Day
10h 30m
Waning Crescent, 0% of the Moon is Illuminated
Oct 26
Waning Crescent
Oct 26
New
Nov 2
First Quarter
Nov 10
Full
Nov 18
Last Quarter

Hourly Weather History & Observations

Time (MDT) Temp. Windchill Dew Point Humidity Pressure Visibility Wind Dir Wind Speed Gust Speed Precip Events Conditions
12:52 AM 35.1 °F 27.4 °F 28.0 °F 76% 30.30 in 10.0 mi NNW 10.4 mph - N/A   Clear
1:52 AM 35.1 °F 27.9 °F 28.0 °F 76% 30.30 in 10.0 mi NNW 9.2 mph - N/A   Clear
2:52 AM 34.0 °F 25.5 °F 27.0 °F 75% 30.30 in 10.0 mi NNW 11.5 mph - N/A   Clear
3:52 AM 33.1 °F 26.1 °F 27.0 °F 78% 30.30 in 10.0 mi NNW 8.1 mph - N/A   Clear
4:52 AM 33.1 °F 24.9 °F 27.0 °F 78% 30.30 in 10.0 mi NNW 10.4 mph - N/A   Clear
5:52 AM 32.0 °F 24.2 °F 26.6 °F 80% 30.23 in 10.0 mi NNW 9.2 mph - N/A   Clear
6:52 AM 30.9 °F 24.3 °F 25.0 °F 79% 30.32 in 10.0 mi NW 6.9 mph - N/A   Clear
7:52 AM 32.0 °F 23.6 °F 26.1 °F 79% 30.33 in 10.0 mi NNW 10.4 mph - N/A   Clear
8:52 AM 35.6 °F 27.5 °F 26.6 °F 70% 30.26 in 10.0 mi NNW 11.5 mph - N/A   Clear
9:52 AM 39.9 °F 31.1 °F 26.1 °F 58% 30.33 in 10.0 mi NNW 17.3 mph - N/A   Clear
10:52 AM 43.0 °F 36.0 °F 24.1 °F 47% 30.32 in 10.0 mi NNW 13.8 mph - N/A   Clear
11:52 AM 45.0 °F 38.5 °F 25.0 °F 46% 30.30 in 10.0 mi NW 13.8 mph 21.9 mph N/A   Clear
12:52 PM 45.0 °F 37.6 °F 23.0 °F 42% 30.29 in 10.0 mi North 17.3 mph 23.0 mph N/A   Mostly Cloudy
1:52 PM 44.6 °F 38.4 °F 21.2 °F 39% 30.20 in 10.0 mi North 12.7 mph - N/A   Overcast
2:52 PM 46.0 °F 41.0 °F 19.9 °F 35% 30.23 in 10.0 mi North 10.4 mph - N/A   Partly Cloudy
3:52 PM 44.1 °F 39.5 °F 19.0 °F 37% 30.23 in 10.0 mi NW 8.1 mph - N/A   Mostly Cloudy
4:52 PM 37.9 °F 30.5 °F 30.9 °F 76% 30.25 in 10.0 mi WSW 11.5 mph - 0.00 in   Overcast
5:52 PM 35.1 °F 30.1 °F 30.0 °F 82% 30.24 in 10.0 mi West 5.8 mph - N/A   Scattered Clouds
6:52 PM 34.0 °F 28.8 °F 28.9 °F 82% 30.24 in 10.0 mi SW 5.8 mph - N/A   Scattered Clouds
7:52 PM 25.0 °F - 24.1 °F 96% 30.25 in 10.0 mi Calm Calm - N/A   Clear
8:52 PM 24.1 °F - 21.9 °F 91% 30.24 in 10.0 mi Calm Calm - N/A   Clear
9:52 PM 23.0 °F - 21.0 °F 92% 30.22 in 10.0 mi Calm Calm - N/A   Clear
10:52 PM 21.9 °F - 19.9 °F 92% 30.20 in 10.0 mi Calm Calm - N/A   Clear
11:52 PM 23.0 °F 18.4 °F 21.9 °F 96% 30.17 in 10.0 mi SSE 3.5 mph - N/A   Clear